Showing default

BEIDOU 3M12, 43603

Orbit data source: Space-Track

BEIDOU 3M12, 43603 is a payload satellite owned by CNSA (CN) in MEO that was launched on Fri, 24 Aug 2018 UTC via a CHANG ZHENG 3B/YZ-1 launch vehicle from the Xichang Space Center, China (XSC). Payload-class satellites include a variety of spacecraft equipped with specific instruments for various scientific and technological missions. These include communications satellites like Starlink; space stations such as the ISS; scientific satellites like the Hubble; Earth observation satellites from companies like Planet Labs, Umbra, and HawkEye 360; GPS; miniature CubeSats for education and research; and military/defense satellites.

Loading next visibility...
Identifier
43603, 2018-067B
Orbit
MEO
Country
Flag of CNCN / PRC
Related business
Manufacturer
SECM
Mission
Operational Defense Navigation
Bus & Motor
BD-3M2, Unknown motor
Mass
1,014 kg wet, ~850 kg dry
Launch date (UTC)
2018-08-24 (7 years ago)
Launch vehicle
CHANG ZHENG 3B/YZ-1
Launch site
Xichang Space Center, China (XSC)
Object type
Payload
Rocket body
Debris
Shape & HBR
Box + 2 Pan, 5.0 m
Radar Cross Section
8.984 m², Large (>1 m²)

Expand to show TLE details & history
Last TLE update: 11 hours ago

TLE from 11 hours ago
0 BEIDOU 3M12
1 43603U 18067B   25300.00338905  .00000020  00000-0  00000-0 0  9998
2 43603  54.1812 188.9137 0005263  29.2589 330.8556  1.86227209 48804
Epoch: 2025-10-27T00:04Z
TLE epoch observation values (Epoch: 2025-10-27T00:04:52.813Z)
Latitude
-0.00003°
Longitude
152.08746°
Altitude
21,515.86 km
Speed
3.781 km/s
True Right ascension
12h 35m 40s
True Declination
0° 00' 00"
Sunlit
Object was in daylight at epoch
Visualization orbit readout
Latitude
Unknown
Longitude
Unknown
Altitude
Unknown
Speed
Unknown
Apparent Right ascension
Unknown
Apparent Declination
Unknown
Sunlit
N/A
Visualization observer readout
Local Sidereal Time
06:52:08
Azimuth
Unknown
Elevation
Unknown
Doppler factor
Unknown
Orbital elements
Apogee altitude
21,543.156 km
Perigee altitude
21,513.782 km
Semi-major axis
27,906.606 km
Eccentricity
0.00053
Inclination
54.1812°
RAAN
188.9137°
Arg. of periapsis
29.2589°
True anomaly
330.82621°
Mean anomaly
330.8556°
Eccentric anomaly
330.84091°
Mean motion
0.46557 °/min
Orbital period
773.25 mins
BSTAR
0
Loading maneuver chart data...
Computing Atmospheric mass density...
Loading historical data...
Loading historical data...
Loading historical data...
Loading historical data...
Loading historical data...
Loading historical data...
Loading historical data...
Other satellites on launch #67 in the year 2018 (2018-08-24 UTC)

Documentation

Showing up to 5 results
|